EW7186 Weather Reports


Display with metric or nautical units.
time (UTC)temp
F
wind
direction
speed
MPH
gust
MPH
rain 1hr
in
rain 24hr
in
rain mn
in
humidity
%
barometer
mb
20260507163055 69 0 0.0 3.0 0.03 1.96 1.41 88 1009.5
20260507161600 69 0 0.0 3.0 0.01 1.94 1.39 89 1010.0
20260507160052 68 0 0.0 0.0 0.02 1.94 1.39 85 1009.7
20260507154552 68 0 0.0 0.0 0.04 1.94 1.39 84 1009.8
20260507153058 66 0 0.0 1.0 0.17 1.93 1.38 87 1009.7
20260507151554 66 0 0.0 0.0 0.65 1.93 1.38 85 1009.8
20260507150057 66 0 0.0 6.0 0.69 1.92 1.37 87 1010.0
20260507144556 66 342 5.0 10.0 0.68 1.89 1.34 86 1010.0
20260507143103 67 329 4.0 14.0 0.57 1.75 1.20 86 1010.1
20260507141554 67 0 0.0 0.0 0.09 1.27 0.72 87 1009.9
20260507140052 67 0 0.0 4.0 0.05 1.23 0.68 88 1009.1
20260507134557 67 248 1.0 3.0 0.03 1.21 0.66 88 1009.5
20260507133059 67 221 0.0 3.0 0.00 1.17 0.63 86 1009.4
20260507131600 67 0 0.0 0.0 0.00 1.17 0.63 84 1009.5
20260507130051 67 0 0.0 0.0 0.00 1.17 0.63 84 1010.0
20260507124556 67 0 0.0 0.0 0.00 1.17 0.63 84 1010.2
20260507123107 67 0 0.0 0.0 0.00 1.17 0.63 83 1009.5
20260507121605 67 0 0.0 0.0 0.00 1.17 0.63 82 1009.2
20260507120058 66 0 0.0 0.0 0.02 1.17 0.63 83 1009.3
20260507114601 66 0 0.0 3.0 0.25 1.17 0.63 83 1009.3
20260507113054 66 0 0.0 0.0 0.32 1.17 0.63 83 1009.0
20260507111554 66 0 0.0 4.0 0.38 1.17 0.63 84 1010.1
20260507110106 66 207 2.0 6.0 0.48 1.16 0.61 84 1010.8
20260507104552 66 0 0.0 1.0 0.26 0.93 0.38 84 1011.2
20260507103058 66 0 0.0 3.0 0.19 0.86 0.31 84 1011.1
20260507101554 66 0 0.0 1.0 0.12 0.79 0.24 85 1010.6
20260507100053 66 0 0.0 0.0 0.02 0.68 0.13 85 1010.4
20260507094608 66 0 0.0 0.0 0.01 0.67 0.12 85 1010.5
20260507093059 66 0 0.0 0.0 0.02 0.67 0.12 87 1010.7
20260507091641 66 0 0.0 0.0 0.02 0.67 0.12 87 1010.8
20260507090107 66 0 0.0 0.0 0.01 0.66 0.11 87 1011.1
20260507084554 66 0 0.0 0.0 0.01 0.66 0.11 88 1010.9
20260507083100 66 0 0.0 0.0 0.00 0.65 0.10 87 1010.6
20260507081555 66 0 0.0 0.0 0.00 0.65 0.10 86 1010.6
20260507080058 66 0 0.0 1.0 0.00 0.65 0.10 84 1010.6
20260507074555 66 0 0.0 0.0 0.00 0.65 0.10 83 1010.9
20260507073100 66 0 0.0 0.0 0.00 0.65 0.10 83 1010.7
20260507071559 66 0 0.0 0.0 0.00 0.65 0.10 83 1010.8
20260507070107 66 0 0.0 0.0 0.00 0.65 0.10 84 1011.0
20260507064600 66 0 0.0 0.0 0.00 0.65 0.10 84 1011.1
20260507063055 66 0 0.0 0.0 0.00 0.65 0.10 84 1011.0
20260507061559 66 0 0.0 0.0 0.00 0.65 0.10 85 1011.0
20260507060111 66 0 0.0 0.0 0.00 0.65 0.10 85 1010.8
20260507054558 67 0 0.0 0.0 0.00 0.65 0.10 85 1010.9
20260507053055 67 0 0.0 0.0 0.00 0.65 0.10 85 1011.0
20260507051555 67 0 0.0 0.0 0.01 0.65 0.10 85 1011.4
20260507050053 67 0 0.0 0.0 0.10 0.65 0.10 86 1011.8
20260507044555 67 0 0.0 0.0 0.12 0.65 0.10 86 1012.2
20260507043059 67 0 0.0 0.0 0.15 0.65 0.10 86 1012.4
20260507041551 68 0 0.0 0.0 0.19 0.64 0.09 87 1012.9
20260507040103 68 0 0.0 0.0 0.16 0.55 0.00 88 1013.1
20260507034557 68 0 0.0 4.0 0.22 0.52 0.52 89 1013.3
20260507033052 68 87 2.0 3.0 0.38 0.50 0.50 89 1013.5
20260507031549 68 0 0.0 1.0 0.45 0.45 0.45 90 1014.3
20260507030050 68 0 0.0 2.0 0.39 0.39 0.39 89 1014.7
20260507024558 69 279 0.0 12.0 0.30 0.30 0.30 88 1014.5
20260507023054 72 46 0.0 4.0 0.11 0.11 0.11 79 1014.1
20260507021554 77 0 0.0 0.0 0.00 0.00 0.00 63 1011.9
20260507020054 78 0 0.0 0.0 0.00 0.00 0.00 58 1011.6
20260507014551 78 0 0.0 1.0 0.00 0.00 0.00 57 1011.6
20260507013048 78 0 0.0 0.0 0.00 0.00 0.00 58 1011.1
20260507011553 78 0 0.0 0.0 0.00 0.00 0.00 60 1010.9
20260507010111 78 0 0.0 0.0 0.00 0.00 0.00 58 1010.7
20260507004550 79 0 0.0 0.0 0.00 0.00 0.00 56 1011.1
20260507003055 80 0 0.0 3.0 0.00 0.00 0.00 56 1011.2
20260507001556 80 0 0.0 0.0 0.00 0.00 0.00 54 1011.2
20260507000105 81 221 0.0 3.0 0.00 0.00 0.00 54 1011.0
20260506234616 81 0 0.0 0.0 0.00 0.00 0.00 53 1011.0
20260506233103 82 234 0.0 3.0 0.00 0.00 0.00 52 1011.1
20260506231550 82 0 0.0 3.0 0.00 0.00 0.00 52 1011.0
20260506230054 83 0 0.0 0.0 0.00 0.00 0.00 51 1011.1
20260506224553 83 0 0.0 0.0 0.00 0.00 0.00 51 1011.2
20260506223057 84 0 1.0 3.0 0.00 0.00 0.00 48 1011.3
20260506221551 84 240 0.0 4.0 0.00 0.00 0.00 47 1011.4
20260506220056 85 0 0.0 4.0 0.00 0.00 0.00 47 1011.4
20260506214551 85 214 0.0 6.0 0.00 0.00 0.00 48 1011.4
20260506213056 85 0 1.0 4.0 0.00 0.00 0.00 48 1011.5
20260506211554 85 236 0.0 4.0 0.00 0.00 0.00 48 1011.5
20260506210052 85 225 0.0 4.0 0.00 0.00 0.00 50 1011.7
20260506204608 84 249 0.0 5.0 0.00 0.00 0.00 51 1011.6
20260506203046 84 207 0.0 3.0 0.00 0.00 0.00 53 1011.8
20260506201552 83 0 0.0 6.0 0.00 0.00 0.00 54 1012.1
20260506200051 82 225 0.0 3.0 0.00 0.00 0.00 54 1012.2
20260506194550 82 205 0.0 9.0 0.00 0.00 0.00 54 1013.1
20260506193052 81 0 1.0 7.0 0.00 0.00 0.00 57 1013.2
20260506191549 81 254 0.0 5.0 0.00 0.00 0.00 55 1013.2
20260506190052 81 202 1.0 3.0 0.00 0.00 0.00 55 1013.2
20260506184550 80 0 0.0 2.0 0.00 0.00 0.00 60 1013.5
20260506183100 79 227 0.0 3.0 0.00 0.00 0.00 63 1013.7
20260506181556 77 0 0.0 3.0 0.00 0.00 0.00 65 1014.2
20260506180052 77 0 0.0 2.0 0.00 0.00 0.00 67 1014.2
20260506174600 75 0 0.0 4.0 0.00 0.00 0.00 68 1014.6
20260506173118 75 189 3.0 5.0 0.00 0.00 0.00 67 1015.1
20260506171556 75 0 1.0 7.0 0.00 0.00 0.00 70 1015.0
20260506170059 74 236 2.0 5.0 0.00 0.00 0.00 69 1015.4
20260506164558 74 0 0.0 1.0 0.00 0.00 0.00 72 1015.6